Location: Belfast
(54.5830°N, 5.9330°W)
Time: 13:59:37
(UTC+00:00)

ISS - Pass Details

Date: 09 November 2018
Orbit: 401 x 408 km, 51.6° (Epoch: 16 November)

Event Time Altitude Azimuth Distance (km) Brightness Sun altitude
Exits shadow 05:48:34 30° 224° (SW) 756 -2.8 -16.4°
Maximum altitude 05:49:11 33° 199° (SSW) 707 -2.8 -16.3°
Drops below altitude 10° 05:52:10 10° 134° (SE) 1,463 -0.2 -15.9°
Sets 05:54:22 0° 124° (SE) 2,323 1.2 -15.6°
